Location: Maissemy
(49.8940°N, 3.1872°E)
Time: 15:05:24
(UTC+00:00)

Daily predictions for brighter satellites

Satellite Brightness Start Highest point End
(mag) Time Altitude Azimuth Time Altitude Azimuth Time Altitude Azimuth
Cosmos 1980 Rocket 2.9 19:45:24 10° NNW 19:50:51 42° NE 19:56:13 10° ESE
SL-08 R/B 3.9 19:47:09 10° NNE 19:51:41 37° E 19:56:07 10° SSE
Okean 1 Rocket 3.5 19:49:34 10° SSE 19:53:41 41° E 19:57:50 10° NNE
SL-24 R/B 4.3 19:49:01 10° NNE 19:53:42 83° WNW 19:58:02 10° SSW
Meteor 2-3 Rocket 3.8 19:51:04 10° N 19:56:42 69° ENE 20:02:18 10° SSE
Cosmos 2084 3.5 19:53:02 10° SW 19:57:11 82° NW 20:01:21 10° NE
CZ-4 R/B 2.0 19:56:15 10° S 19:59:47 51° W 20:03:21 10° NNW
Cosmos 1850 Rocket 4.3 19:55:54 10° NNW 20:00:58 53° ENE 20:06:01 10° SE
CZ-4B R/B 4.3 19:59:02 10° ESE 20:01:17 17° ENE 20:03:32 10° NNE
Cosmos 1782 4.3 19:59:28 10° SE 20:01:42 16° E 20:03:55 10° NE
ASTEX 1 3.8 20:01:09 10° S 20:06:04 70° W 20:11:04 10° N
SPOT 5 4.3 20:02:19 10° SSW 20:06:11 32° W 20:10:07 10° NNW
Cosmos 2056 Rocket 3.8 20:04:03 10° SSW 20:09:27 77° WNW 20:14:51 10° NNE
CZ-4B R/B 3.4 20:04:05 10° SSE 20:09:46 85° WSW 20:15:26 10° NNW
Cosmos 1833 Rocket 2.7 20:04:50 10° SSW 20:10:26 84° ESE 20:16:06 10° NNE
Cosmos 1110 Rocket 4.2 20:05:50 10° S 20:10:55 50° ESE 20:16:03 10° NNE
Cosmos 1802 Rocket 4.3 20:05:34 10° SSE 20:11:27 47° E 20:17:18 10° NNE
Cosmos 1624 Rocket 4.2 20:07:14 10° SSW 20:12:24 75° WNW 20:17:37 10° NNE
Terra 2.0 20:09:17 10° S 20:13:57 72° WSW 20:18:40 10° NNW
Gbstr 26 Del rocket 3.2 20:09:14 10° WNW 20:14:35 88° SSW 20:18:53 10° ESE
Cosmos 2360 Rocket 4.4 20:12:45 10° N 20:15:56 15° NNE 20:19:06 10° ENE
Sich 1 Rocket 3.6 20:12:12 10° S 20:16:28 61° E 20:20:48 10° NNE
SJ 16-02 3.9 20:17:16 10° WNW 20:19:54 16° W 20:22:32 10° SW
YAOGAN 11 4.5 20:17:08 10° NNE 20:21:22 45° E 20:25:38 10° S
CZ-2C R/B 4.2 20:23:39 11° E 20:25:03 14° ENE 20:26:39 10° NNE
USA 229 DEB 4.4 20:18:29 10° NW 20:25:51 60° SW 20:33:56 10° SSE
USA 229 4.4 20:18:31 10° NW 20:25:54 61° SW 20:34:01 10° SSE
Cosmos 1743 2.5 20:23:28 10° N 20:26:24 45° ENE 20:28:34 16° SSE
SKYMED 3 4.4 20:26:16 10° NNE 20:30:13 80° WNW 20:34:09 10° SSW
Meteor 1-27 4.5 20:25:29 10° SSE 20:30:55 50° E 20:36:20 10° NNE
Cosmos 44 Rocket 3.6 20:26:13 10° SSW 20:31:02 46° ESE 20:35:59 10° NE
ISS -2.6 20:29:14 10° SSW 20:31:55 23° SE 20:34:37 10° E
Cosmos 1459 Rocket 4.0 20:26:09 10° S 20:32:24 85° E 20:38:36 10° N
Cosmos 2100 Rocket 4.1 20:29:45 10° S 20:35:58 84° W 20:42:19 10° N
Ariane Rocket 3.6 20:32:20 14° SE 20:36:18 42° ENE 20:41:03 10° N
ADEOS 4.3 20:34:04 10° S 20:39:09 53° W 20:44:16 10° NNW
ATLAS 2AS CENTAUR R/B 3.3 20:32:52 10° WSW 20:39:44 63° NW 20:46:31 10° NE
Cosmos 2369 4.1 20:36:24 10° NNW 20:42:00 52° NE 20:46:24 16° SE
BREEZE-M DEB (TANK) 3.8 20:39:10 10° W 20:42:04 42° SSW 20:47:10 16° SE
Spot 2 Rocket 3.6 20:37:11 10° S 20:42:12 75° WSW 20:47:14 10° NNW
SL-4 R/B 3.2 20:39:06 10° W 20:42:22 27° SW 20:44:44 15° SSE
Cosmos 2322 Rocket 4.1 20:39:50 10° N 20:43:58 20° NE 20:48:06 10° E
MOS 1-B 4.5 20:40:01 10° SSE 20:45:49 78° WSW 20:51:40 10° NNW
Cosmos 2082 Rocket 2.8 20:41:25 10° S 20:46:37 37° ESE 20:51:50 10° NE
Okean 2 Rocket 3.9 20:42:23 10° SSW 20:46:47 55° WNW 20:51:13 10° N
USA 305 2.9 20:44:12 10° WNW 20:48:17 62° NNE 20:51:08 16° E
Cosmos 2151 4.3 20:47:23 10° NNE 20:50:52 25° ENE 20:52:53 18° ESE
Cosmos 1607 4.1 20:51:38 10° SSW 20:57:29 48° ESE 21:03:28 10° NE
Cosmos 2233 Rocket 4.0 20:51:24 10° S 20:57:32 66° E 21:03:39 10° NNE
Cosmos 1626 Rocket 4.2 20:53:37 10° N 20:57:44 40° ENE 21:00:05 22° SE
Cosmos 2228 2.9 20:55:36 16° S 20:58:46 61° E 21:02:51 10° NNE
SL-08 R/B 4.5 20:53:40 10° S 20:59:54 77° E 21:06:17 10° NNE
USA 186 2.6 20:58:27 15° SSW 21:00:15 35° W 21:02:47 10° NNW
Timation 1 Rocket 4.4 20:54:55 10° SSW 21:00:55 83° WNW 21:06:59 10° NNE
Okean O Rocket 2.3 20:57:28 11° S 21:01:31 48° W 21:05:42 10° NNW
Tsikada Rocket 3.9 20:57:46 10° N 21:04:00 82° E 21:08:52 17° SSE
Cosmos 1697 Rocket 4.1 21:01:39 10° NW 21:06:31 31° WSW 21:11:21 10° SSW
CZ-4C R/B 1.7 21:04:00 10° SW 21:08:14 90° NW 21:13:44 10° NE
Cosmos 1725 Rocket 4.2 21:02:20 10° SSW 21:08:38 77° W 21:14:55 10° N
Cosmos 1452 Rocket 3.5 21:03:59 10° SSW 21:09:13 84° WNW 21:14:29 10° NNE
COSMOS 2406 4.2 21:07:29 21° SE 21:09:50 28° ESE 21:14:40 10° NE
SL-16 R/B 3.0 21:05:50 10° NNW 21:11:11 40° NE 21:14:58 18° ESE
Okean-O 3.8 21:10:27 10° SSW 21:14:29 38° W 21:18:35 10° NNW
ATLAS 3B R/B 3.7 21:07:55 10° NW 21:15:07 43° WSW 21:20:47 15° S
CZ-4B R/B 3.4 21:19:07 22° S 21:22:08 77° WSW 21:26:57 10° NNW
Cosmos 2333 Rocket 2.9 21:18:40 10° NNW 21:24:07 44° NE 21:27:39 21° ESE
Cosmos 1455 Rocket 4.0 21:20:56 10° SSW 21:25:12 48° WNW 21:29:29 10° N
Cosmos 1302 Rocket 3.9 21:21:44 10° SSW 21:26:54 86° ESE 21:32:07 10° NNE
Cosmos 2098 Rocket 4.3 21:25:32 25° ESE 21:27:10 30° E 21:31:15 10° NNE
Cosmos 2016 Rocket 4.4 21:21:34 10° SSW 21:27:46 62° WNW 21:33:56 10° N
CZ-4B R/B 3.5 21:33:11 23° SSW 21:34:46 37° W 21:37:57 10° NNW
Cosmos 1980 Rocket 3.1 21:29:32 10° NW 21:34:49 40° WSW 21:38:33 18° SSW
Cosmos 2061 Rocket 4.0 21:29:50 13° SSW 21:35:29 82° W 21:41:48 10° N
Cosmos 1782 3.8 21:32:57 12° SW 21:35:59 38° WNW 21:39:20 10° N
Cosmos 1544 Rocket 3.5 21:35:33 32° S 21:37:29 68° E 21:41:48 10° NNE
SPOT 3 Rocket 4.2 21:34:29 19° S 21:38:04 50° W 21:43:04 10° NNW
Cosmos 724 4.4 21:32:07 10° SW 21:38:09 83° NW 21:44:07 10° NE
NOSS 3-3 (A) 3.7 21:34:26 13° SSW 21:39:02 58° SE 21:45:04 10° NE
Cosmos 1933 3.2 21:44:19 45° SSE 21:45:09 59° E 21:48:56 10° NNE
Cosmos 2084 Rocket 3.5 21:44:57 10° NW 21:49:06 61° SW 21:50:19 41° S
Cosmos 1758 Rocket 3.8 21:47:30 10° NNW 21:51:51 66° W 21:53:42 33° SSW
Helios 1B rocket 3.0 21:51:51 30° E 21:52:25 32° ENE 21:55:35 10° N
CZ-2C R/B 3.3 21:55:17 28° WSW 21:55:37 29° W 21:58:07 10° NW
Cosmos 1464 Rocket 4.2 21:53:23 31° SSE 21:56:08 54° E 22:02:07 10° NNE
Cosmos 1513 Rocket 4.4 21:56:21 27° S 22:00:00 81° E 22:06:12 10° N
Gbstr 26 Del rocket 4.1 21:56:24 10° W 22:00:26 28° SW 22:00:52 28° SSW
Cosmos 2360 Rocket 2.8 21:55:51 10° NNW 22:01:22 49° NE 22:04:13 27° ESE
Meteor 2-10 4.4 21:58:54 10° N 22:04:35 65° ENE 22:06:57 36° SE
NOSS 3-3 (C) 3.6 22:02:52 18° SSW 22:06:55 74° SE 22:13:12 10° NE
ALOS 2 4.1 22:06:32 21° E 22:07:59 26° ENE 22:11:36 10° N
Cosmos 1825 Rocket 3.8 22:03:56 10° N 22:08:12 56° ENE 22:09:11 45° SE
ISS -3.9 22:05:04 10° WSW 22:08:14 79° SW 22:08:14 79° SW
ARIANE 5 R/B 3.9 22:07:11 25° E 22:08:33 31° ENE 22:12:28 10° N
Geosat 3.9 22:04:08 10° NNE 22:09:11 89° SE 22:12:24 23° SSW
Cosmos 1953 Rocket 4.4 22:05:46 10° N 22:09:49 36° ENE 22:10:47 32° E
Cosmos 1072 Rocket 4.4 22:08:18 32° S 22:11:20 75° E 22:17:39 10° NNE
USA 305 3.2 22:09:50 10° WNW 22:13:10 38° WSW 22:13:10 38° WSW
Ariane Rocket 4.4 22:12:25 18° SW 22:15:16 31° W 22:19:46 10° NNW
BREEZE-M R/B 4.4 22:06:37 10° W 22:15:44 84° N 22:21:24 10° E
Cosmos 1602 Rocket 3.7 22:13:15 10° NNW 22:17:31 62° W 22:18:42 43° SSW
Cosmos 2219 Rocket 3.0 22:13:29 10° NNW 22:18:53 43° NE 22:21:48 25° ESE
DEBRIS 4.1 22:15:01 10° W 22:18:57 88° S 22:33:48 10° E
CZ-2C R/B 4.5 22:15:49 10° NNE 22:19:50 33° E 22:20:05 33° ESE
NOSS 3-4 (A) 3.9 22:14:54 10° NW 22:21:29 75° NE 22:26:01 27° SE
NOSS 3-4 (C) 3.9 22:15:30 10° NW 22:22:06 75° NE 22:26:40 27° SE
Cosmos 1437 Rocket 3.1 22:21:47 41° WSW 22:22:33 51° WNW 22:26:04 10° N
Cosmos 1461 3.7 22:26:33 32° ENE 22:26:33 32° ENE 22:28:54 10° NE
Cosmos 2151 4.1 22:23:57 10° NNW 22:27:41 34° W 22:28:56 27° SW
Cosmos 1428 Rocket 4.4 22:22:29 10° N 22:28:47 89° E 22:31:20 39° S
Cosmos 2322 Rocket 2.2 22:23:16 10° NNW 22:28:57 78° ENE 22:31:03 40° SE
Cosmos 2034 Rocket 4.1 22:27:37 38° SSE 22:30:07 66° E 22:36:26 10° NNE
Cosmos 2082 Rocket 3.2 22:25:09 10° SW 22:30:37 45° NW 22:36:07 10° NNE
Cosmos 220 Rocket 3.6 22:32:36 70° SSE 22:32:55 75° ESE 22:37:00 10° NNE
Cosmos 1707 4.2 22:38:21 18° NE 22:38:21 18° NE 22:39:29 10° NNE
Meteor 1-5 Rocket 4.4 22:32:17 10° NNW 22:37:54 67° W 22:40:03 39° SSW
Cosmos 1536 3.7 22:34:40 10° N 22:38:02 33° ENE 22:38:06 33° ENE
USA 234 3.3 22:32:59 10° ENE 22:39:25 55° SE 22:42:49 28° SSW
COSMOS 2428 4.4 22:37:19 10° NNW 22:42:10 27° NE 22:46:33 12° E
Okean 1-7 Rocket 4.1 22:41:54 10° NNW 22:46:13 52° W 22:47:08 44° SW
Cosmos 1763 Rocket 3.8 22:45:39 45° SE 22:46:26 48° ESE 22:51:31 10° NNE
Cosmos-2242 3.2 22:47:28 50° E 22:47:32 50° E 22:51:32 10° NNE
Cosmos 1503 Rocket 3.9 22:42:28 10° NNW 22:47:43 89° ENE 22:49:02 52° SSE
Helios 1A 3.3 22:44:02 10° N 22:47:52 53° WNW 22:48:44 43° WSW
Cosmos 1777 Rocket 4.0 22:42:44 10° NNW 22:47:59 73° WSW 22:49:16 50° S
Cosmos 2278 3.9 22:42:23 10° NW 22:48:00 60° WSW 22:49:38 43° SSW
CZ-2C R/B 4.4 22:45:54 10° NNE 22:50:47 29° E 22:51:56 27° ESE
Cosmos 990 Rocket 4.0 22:45:54 10° NNW 22:51:04 70° ENE 22:52:30 46° SE
Cosmos 1805 4.3 22:48:17 10° NNW 22:50:59 28° W 22:50:59 28° W
Cosmos 1606 Rocket 3.9 22:52:45 46° SW 22:53:45 59° WNW 22:58:03 10° N
COSMOS 2406 3.7 22:49:26 17° SW 22:53:47 58° NW 22:59:27 10° NNE
ARGOS Delta rocket 4.3 22:50:24 10° NNE 22:55:15 49° E 22:56:07 44° SE
SL-16 R/B 2.9 22:50:00 10° NW 22:55:18 42° WSW 22:56:48 35° SW
USA 290 3.7 22:56:48 31° NE 22:56:48 31° NE 22:58:39 10° NNE
CZ-4C R/B 4.1 22:53:03 10° W 22:57:15 28° NNW 23:02:29 10° NE
Cosmos 1354 Rocket 4.0 22:52:39 10° NNW 22:57:56 77° ENE 22:59:19 50° SE
Cosmos 1486 Rocket 4.4 22:54:35 10° NNW 22:59:41 52° WSW 23:00:50 43° SSW
Cosmos 1634 Rocket 4.1 22:57:50 43° SSE 22:59:44 62° E 23:05:51 10° NNE
Nadezhda 4 Rocket 4.5 22:54:31 10° NNW 23:00:23 49° W 23:02:51 32° SW
Cosmos 1766 3.4 22:58:42 10° N 23:01:17 53° N 23:01:17 53° N
Cosmos 2279 Rocket 4.5 23:01:48 37° SE 23:03:40 48° E 23:09:38 10° NNE
Cosmos 2098 Rocket 4.4 23:02:10 26° SW 23:04:24 39° WNW 23:08:45 10° N
Cosmos 1470 3.9 23:01:37 10° N 23:04:12 28° ENE 23:04:12 28° ENE
SeaSat 1 3.5 23:03:53 23° ESE 23:06:20 39° NE 23:10:53 10° NNW
Cosmos 1726 Rocket 3.7 23:06:20 52° WSW 23:06:51 57° WNW 23:10:52 10° N
Cosmos 2333 Rocket 3.0 23:03:08 10° NW 23:08:21 38° WSW 23:09:39 34° SW
Cosmos 2221 3.8 23:09:57 27° E 23:09:57 27° E 23:13:27 10° NNE
Cosmos 1076 Rocket 4.0 23:07:07 10° NNW 23:11:12 45° W 23:11:38 44° WSW
Meteor 2-2 Rocket 4.2 23:10:20 50° S 23:11:51 76° E 23:17:35 10° NNE
Cosmos 1842 4.3 23:13:51 28° NE 23:13:51 28° NE 23:15:48 10° NNE
BREEZE-M DEB (TANK) 3.5 23:09:15 10° W 23:17:22 73° S 23:22:18 10° E
CZ-2C R/B 3.3 23:16:22 33° ESE 23:18:16 46° ENE 23:23:16 10° N
Cosmos 1833 4.1 23:17:41 51° S 23:19:05 73° ESE 23:24:43 10° NNE
Spot 4 4.0 23:23:21 52° SW 23:24:03 57° W 23:28:46 10° NNW
Okean 1 4.5 23:23:58 29° W 23:24:15 29° WNW 23:27:27 10° N
KORONAS-FOTON 4.1 23:25:14 54° NNE 23:25:14 54° NNE 23:27:57 10° NNE
Cosmos 2026 Rocket 4.3 23:18:51 10° NNW 23:25:04 57° W 23:27:17 38° SSW
Helios 1B rocket 4.0 23:25:48 20° W 23:25:48 20° W 23:28:10 10° NW
SAR-Lupe-2 4.1 23:26:37 50° NW 23:26:37 50° NW 23:29:16 10° NNW
Cosmos 1975 3.3 23:24:52 10° N 23:28:17 46° ENE 23:28:17 46° ENE
Aureole 1 Rocket 3.7 23:24:47 10° NNW 23:30:05 88° ENE 23:32:03 46° SSE
Cosmos 2266 Rocket 4.4 23:26:15 10° N 23:32:09 51° ENE 23:34:28 34° SE
Cosmos 2322 4.1 23:27:05 10° NNW 23:32:43 57° NE 23:35:16 31° ESE
Cosmos 1812 Rocket 4.4 23:34:01 37° E 23:34:16 37° E 23:38:20 10° NNE
Cosmos 2297 Rocket 4.0 23:33:58 16° ESE 23:34:49 17° E 23:38:14 10° ENE
Cosmos 44 3.6 23:30:44 10° NW 23:36:10 72° NE 23:38:07 39° ESE
Cosmos 1271 Rocket 3.2 23:38:07 46° NE 23:38:07 46° NE 23:40:46 10° NNE
Cosmos 372 Rocket 3.9 23:37:18 10° NNW 23:42:28 84° ENE 23:43:34 56° SSE
RESURS DK-1 3.3 23:39:30 10° NNW 23:43:17 40° NE 23:44:13 34° E
Cosmos 1937 Rocket 4.1 23:38:41 10° NNW 23:43:43 50° ENE 23:45:41 33° ESE
ALOS 2 3.2 23:43:55 41° WSW 23:44:07 41° W 23:48:18 10° NNW
ARIANE 5 R/B 3.6 23:44:33 34° WSW 23:44:47 34° W 23:48:52 10° NNW
Cosmos 2360 Rocket 3.1 23:40:08 10° NW 23:45:10 34° WSW 23:45:58 32° WSW
Meteor 1-11 Rocket 4.0 23:41:57 10° N 23:47:38 61° ENE 23:49:32 40° SE
GP-B 3.1 23:44:30 10° N 23:48:52 66° E 23:49:14 63° ESE
Cosmos 2058 Rocket 3.7 23:48:53 42° W 23:49:31 45° WNW 23:53:43 10° N
Cosmos 468 Rocket 3.9 23:51:08 57° SSW 23:52:14 84° ESE 23:57:32 10° NNE
